Regional Weather Roundup
Issued by NWS

Home | Current Version | Previous Version | Text Only | Print | Product List | Glossary Off
Versions: 1 2 3 4 5 6 7 8 9 10 11 12 13 14 15 16 17 18 19 20 21 22 23 24 25 26 27

000
ASUS45 KTFX 220110
RWRMT
MONTANA REGIONAL WEATHER ROUNDUP
NATIONAL WEATHER SERVICE GREAT FALLS MT
700 PM MDT SUN MAY 21 2017

NOTE: "FAIR" INDICATES FEW OR NO CLOUDS BELOW 12000 FEET WITH NO
SIGNIFICANT WEATHER AND/OR OBSTRUCTIONS TO VISIBILITY.

MTZ001>007-043-220200-
WEST OF THE DIVIDE

CITY           SKY/WX    TMP DP  RH WIND       PRES   REMARKS
KALISPELL      SUNNY     70  47  43 S10       30.15S
MISSOULA       SUNNY     74  37  26 N5        30.18F
BUTTE          SUNNY     64  25  22 NW12      30.25S
MULLAN PASS    MOSUNNY   60  32  34 NW6       30.30F
ANACONDA         N/A     66  28  24 NW8         N/A
DEER LODGE       N/A     66  30  26 NW12G17   30.24F
EUREKA           N/A     77  39  25 CALM      30.12F
HAMILTON         N/A     72  32  23 NW7       30.20S
LIBBY            N/A     77  34  20 SW5       30.13F
PLAINS           N/A     76  45  33 NW2       30.14F
RONAN            N/A     72  39  30 CALM      30.21F
$$

MTZ008-052>055-220200-
SOUTHWEST MONTANA

CITY           SKY/WX    TMP DP  RH WIND       PRES   REMARKS
BOZEMAN        SUNNY     64  34  32 W7        30.21S
DILLON         MOSUNNY   64  30  27 NW3       30.22F
W YELLOWSTONE  SUNNY     57  16  19 N9G17     30.27S
ENNIS          SUNNY     61  30  31 VRB7      30.28F
THREE FORKS      N/A     66  34  30 CALM      30.18F
TWIN BRIDGES     N/A     67  28  23 N15       30.17F
$$

MTZ009-010-012-014-046-048-049-054-220200-
EAST SLOPES AND CENTRAL MONTANA

CITY           SKY/WX    TMP DP  RH WIND       PRES   REMARKS
CUT BANK       MOSUNNY   68  28  22 N16       30.15S
GREAT FALLS    CLOUDY    66  35  31 W7        30.15F
HELENA         CLOUDY    68  38  33 NE6       30.18F
AUGUSTA          N/A     62  38  41 NE5       30.18F
BOWMANS CRNR     N/A     63  36  36 N7        30.16F
CHOTEAU          N/A     68  32  26 N12       30.18S
FAIRFIELD      PTSUNNY   68  34  28 NW10      30.15F
POWER            N/A     66  37  35 W7        30.14F
RAYNESFORD     PTSUNNY   65  35  32 NW9       30.17S
ULM            PTSUNNY   65  44  47 NW3       30.16F
$$

MTZ011-013-016-021-045-047-050-051-220200-
NORTH CENTRAL MONTANA

CITY           SKY/WX    TMP DP  RH WIND       PRES   REMARKS
HAVRE          CLOUDY    70  33  25 W9        30.05F
LEWISTOWN      SUNNY     62  37  39 W8        30.15F
N BAR RANCH      N/A     61  32  33 NW18G25   30.18S
CHINOOK          N/A     70  39  32 W5        30.05F
DENTON           N/A     65  32  29 W25G33    30.09F
FORT BENTON      N/A     70  36  28 MISG      30.12S
GEYSER         PTSUNNY   62  36  37 NW14G22   30.15F
JUDITH GAP       N/A     61  35  37 NW21G28   30.17S
STANFORD         N/A     60  33  36 NW18G24   30.17F
WINIFRED       PTSUNNY   63  33  32 N14       30.12S
$$

MTZ017>020-022>027-061-062-220200-
NORTHEAST MONTANA

CITY           SKY/WX    TMP DP  RH WIND       PRES   REMARKS
GLASGOW        CLOUDY    59  40  49 NE17      30.04F
JORDAN           N/A     66  32  28 N10       30.05
SIDNEY         SUNNY     66  36  32 NW9       29.97R
WOLF POINT     LGT RAIN  59  44  57 NW15      30.05R
MALTA          PTSUNNY   68  34  28 NW6       30.04S
PLENTYWOOD       N/A     61  37  41 NW25G33   29.97S
POPLAR           N/A     57  45  62 N12G24    30.05R
SCOBEY           N/A     56  40  55 CALM      30.03R
$$

MTZ028>42-056>058-220200-
SOUTHCENTRAL AND SOUTHEAST MONTANA

CITY           SKY/WX    TMP DP  RH WIND       PRES   REMARKS
BAKER          LGT RAIN  57  41  55 N17G28    30.05S
BILLINGS       MOSUNNY   68  31  25 NW12      30.13F
LIVINGSTON     MOSUNNY   61  40  45 SW6       30.20F
MILES CITY     CLOUDY    67  31  26 NW18      30.06S
BIG TIMBER     SUNNY     63  36  36 W17       30.21F
EKALAKA          N/A     55  38  52 NW13      30.05S
FORSYTH          N/A     61  41  48 NE6       30.08F
LAUREL           N/A     66  34  30 W10       30.12F
ROUNDUP          N/A     67  32  27 W9        30.03F
$$

REGIONAL REPORTS...DAKOTAS

CITY           SKY/WX    TMP DP  RH WIND       PRES   REMARKS
WILLISTON      MOSUNNY   68  32  26 NW17      29.95R
MINOT          SUNNY     63  34  33 NE10      29.91R
DICKINSON      PTSUNNY   61  37  41 W21       29.95F
BEACH            N/A     59  43  55 W12G18    30.04S
TIOGA          CLOUDY    68  28  22 N26       29.93R
WATFORD CITY     N/A     66  32  28 NW15G24   29.93R
BISMARCK       SUNNY     67  33  28 NE12      29.91R
GRAND FORKS    CLOUDY    51  47  86 NW12      29.87F
FARGO          CLOUDY    53  42  66 NW10      29.89S
BUFFALO SD       N/A     58  44  60 W12       29.98S
RAPID CITY     MOSUNNY   55  43  63 W12       30.10R
$$

REGIONAL REPORTS...WYOMING/IDAHO/WASHINGTON

CITY           SKY/WX    TMP DP  RH WIND       PRES   REMARKS
GILLETTE       CLOUDY    61  38  42 NW16G23   30.14R
SHERIDAN       SUNNY     61  37  41 N17       30.16S
BUFFALO WY     MOSUNNY   57  33  40 N14G25    30.19S
CODY           MOSUNNY   59  31  34 NE14      30.21S
YELLOWSTONE LA   N/A     51  20  29 VRB7      30.32S
IDAHO FALLS    MOSUNNY   69  32  25 N7        30.19F
SALMON         SUNNY     66  41  39 SW5       30.14F
BOISE          SUNNY     75  46  35 NW12      30.14F
SPOKANE        PTSUNNY   77  38  24 W9        30.18F
$$

REGIONAL REPORTS...ALBERTA

CITY           SKY/WX    TMP DP  RH WIND       PRES   REMARKS
EDMONTON       SUNNY     73  34  23 N6        30.06F
CALGARY        MOSUNNY   70  30  23 N16       30.13F
LETHBRIDGE     MOSUNNY   72  34  25 NW15G21   30.11F
MEDICINE HAT   MOSUNNY   68  39  34 E7        30.06S
WATERTON GATE    N/A     70  28  21 W6          N/A
CARDSTON         N/A     70  30  23 NW7         N/A
MILK RIVER       N/A     70  32  24 N18G25      N/A
$$

REGIONAL REPORTS...SASKATCHEWAN

CITY           SKY/WX    TMP DP  RH WIND       PRES   REMARKS
SWIFT CURRENT  PTSUNNY   64  36  34 N22G30    30.01F
REGINA         PTSUNNY   61  41  48 NW8       29.97R
SASKATOON      MOSUNNY   59  43  55 NE20      30.05R
CYPRESS HILLS    N/A     57  34  41 NW8         N/A
ROCKGLEN         N/A     50  43  76 W12         N/A
ASSINIBOIA       N/A     72  32  23 N8          N/A
$$




USA.gov is the U.S. government's official web portal to all federal, state and local government web resources and services.